Flag for U.S.A. Weather past 2 weeks in Santa Barbara, California, U.S.A.

Now
56 °F

Clear.


Feels Like: 56 °F
Forecast: 52 / 66 °F
Wind: No wind

Location: Santa Barbara Municipal Airport

Current Time: May 25, 2015 at 11:55:31 PM

Latest Report: May 25, 2015 at 10:53 PM


Visibility: 10 mi

Pressure: 29.99 "Hg

Humidity: 81%

Dew point: 50 °F

Location of Santa BarbaraLocation

Historic Weather in Santa Barbara — Graph

°F

Santa Barbara temperature yesterday

Maximum temperature yesterday: 69 °F (at 3:53 PM)
Minimum temperature yesterday: 50 °F (at 4:53 AM)
Average temperature yesterday: 61 °F

Past Weeks' High & Low Weather Summary

 TemperatureHumidityPressure
High74 °F (May 18, 5:53 PM)93% (May 15, 1:53 AM)30.09 "Hg (May 15, 1:53 AM)
Low46 °F (May 12, 5:53 AM)35% (May 18, 5:53 PM)29.79 "Hg (May 11, 7:53 PM)
Average60 °F68%29.95 "Hg
* Reported May 10 10:53 PM — May 25 10:53 PM, Santa Barbara, Weather by CustomWeather, © 2015

Note: Actual official high and low records may vary slightly from our data, if they occured in-between our weather recording intervals... More about our weather records

Advertising

Santa Barbara weather history for previous 24 hours

 ConditionsComfort  
Time TempWeatherWind HumidityBarometerVisibility
10:53 PM
Mon, May 25
56 °FClear.No wind81%29.99 "Hg10 mi
9:53 PM58 °FClear.3 mph87%29.98 "Hg10 mi
8:53 PM59 °FSunny.6 mph78%29.97 "Hg10 mi
7:53 PM60 °FSunny.5 mph72%29.96 "Hg10 mi
6:53 PM63 °FSunny.8 mph70%29.95 "Hg10 mi
5:53 PM64 °FSunny.8 mph68%29.95 "Hg10 mi
4:53 PM65 °FPassing clouds.7 mph66%29.97 "Hg10 mi
3:53 PM66 °FScattered clouds.9 mph63%29.98 "Hg10 mi
2:53 PM66 °FScattered clouds.8 mph61%29.98 "Hg10 mi
2:04 PM65 °FScattered clouds.9 mph66%29.99 "Hg10 mi
1:53 PM65 °FOvercast.8 mph66%29.99 "Hg10 mi
12:53 PM63 °FOvercast.7 mph68%30.00 "Hg10 mi
11:53 AM61 °FOvercast.9 mph78%30.01 "Hg10 mi
10:53 AM63 °FSunny.10 mph75%30.01 "Hg10 mi
9:53 AM63 °FScattered clouds.13 mph73%29.99 "Hg10 mi
8:53 AM62 °FScattered clouds.10 mph75%29.98 "Hg10 mi
7:53 AM60 °FPassing clouds.3 mph78%29.97 "Hg10 mi
6:53 AM54 °FSunny.3 mph86%29.95 "Hg10 mi
5:53 AM53 °FClear.No wind86%29.94 "Hg10 mi
4:53 AM51 °FClear.No wind92%29.93 "Hg10 mi
3:53 AM55 °FClear.3 mph87%29.93 "Hg10 mi
2:53 AM54 °FClear.5 mph90%29.93 "Hg10 mi
1:53 AM56 °FClear.No wind90%29.94 "Hg10 mi
12:53 AM55 °FClear.No wind90%29.95 "Hg10 mi
11:53 PM
Sun, May 24
58 °FClear.5 mph84%29.95 "Hg10 mi
Weather by CustomWeather, © 2015

See weather overviewHow to use our weather pages